Погода в Быхове

Россия / Брянская область     52°25′38″N   34°40′18″E
темп.,
°C
ветер,
м/с
пор.,
м/с
влажн.,
%
обл.,
%
осадки,
мм/ч
давл.,
гПа
погр.,
м
8 мая, сб
сб800:00+10ююв71580100 1.1 1010649
03:00+9ююв71592100 4.1 1008621
06:00+9ююв71591100 1.3 1006698
09:00+10ююв71496100 3.3 1004652
12:00+10ю4997100 1.6 1003690
15:00+9зсз3692100 4.5 1003386
18:00+8зсз5895100 0.3 1004558
21:00+4сз91597100 2.5 1008799
9 мая, вс
вс900:00+4зсз61297100 2.4 1010953
03:00+4сз6128998 3.1 1013830
06:00+2зсз5129142 0.0 1015489
09:00+6сз7107313 0.0 10171024
12:00+9сз8105396 0.1 10182109
15:00+10ссз8105290 0.2 10212151
18:00+10ссз48585 0.0 10221870
21:00+5сз34725 0.1 102555
10 мая, пн
пн1000:00+3сз36775 0.0 102695
03:00+2ссз36765 0.0 102883
06:00+2с34785 0.0 102985
09:00+9с35583 0.0 1030429
12:00+13ссв56461 0.0 10291368
15:00+14ссв56430 0.0 10281669
18:00+13св47565 0.0 1027644
21:00+7св47760 0.0 102895
11 мая, вт
вт1100:00+6св411800 0.0 1028184
03:00+4ссв412800 0.0 1028229
06:00+5ссв514772 0.0 1027344
09:00+11св812655 0.0 1026572
12:00+15св7106329 0.0 1025867
15:00+16всв71172100 0.0 10241071
18:00+14в6118144 0.0 10251024
21:00+10всв349334 0.1 102450
12 мая, ср
ср1200:00+11в4995100 0.0 1023359
03:00+9в2592100 0.4 1021175
06:00+8в3794100 1.3 1021269
09:00+10в478636 1.4 1021422
12:00+15вюв7962100 0.2 10201714
15:00+14вюв6970100 0.9 10201149
18:00+14юв3675100 0.3 1019702
21:00+11зюз2288100 0.4 101925